sat.trackr.live / text

‹ back to catalog

STARLINK-31215

NORAD 58872 · 2024-019V

PAYLOAD ACTIVE UNKNOWN

§ Identity

Operator
Country
US
Launch date
2024-01-29
Launch site
AFETR
Launch vehicle
Mass (kg)
RCS (m²)

Purposes: comms

External: N2YO · Heavens-Above · Gunter

§ Orbital elements

Epoch: 2026-09-20T08:06:27.748224Z

Period
94.27 min
Inclination
43.0007°
Eccentricity
0.0001109
Mean motion
15.27576696 rev/d
Perigee alt
482.3 km
Apogee alt
483.8 km
Semi-major
6,861.2 km
B*
4.8029e-5
RAAN
229.4505°
Arg perigee
274.1700°
Mean anomaly
85.9024°
Rev number
14,883

§ Raw data

STARLINK-312151 58872U 24019V   26263.33782116  .00001060  00000+0  48029-4 0  99992 58872  43.0007 229.4505 0001109 274.1700  85.9024 15.27576696148831

JSON: /api/v1/satellites/58872 · /tle

For live sub-satellite position, see the globe view (requires WebGL).

§ Visibility from observer

Set your observer location to see the next 7 days of passes ≥ 10°. The values pass through the URL so the page stays shareable.

No JS? Fill the form by hand. The geolocation button needs JavaScript.